Regional Weather Roundup
Issued by NWS

Home | Current Version | Previous Version | Graphics & Text | Print | Product List | Glossary On
Versions: 1 2 3 4 5 6 7 8 9 10 11 12 13 14 15 16 17 18 19 20 21 22 23 24 25 26 27 28 29 30 31 32 33 34 35 36 37 38 39 40 41 42 43 44 45 46 47 48 49 50
000
ASUS44 KMEG 211210
RWRTN
TENNESSEE HOURLY STATE WEATHER ROUNDUP
NATIONAL WEATHER SERVICE MEMPHIS TN
700 AM CDT MON AUG 21 2017

TNZ002-004-019-021-049-052-054-088>092-211300-
WEST TENNESSEE

CITY           SKY/WX    TMP DP  RH WIND       PRES   REMARKS
MEMPHIS INTL   PTCLDY    78  74  87 CALM      30.12R
NWS MEMPHIS      N/A     76 N/A N/A MISG        N/A
JACKSON        CLEAR     72  72 100 E5        30.13R FOG
DYERSBURG      PTCLDY    74  73  97 CALM      30.14R
SOMERVILLE     CLEAR     75  73  94 CALM      30.12R
COVINGTON      CLEAR     72  72 100 SE3       30.13R FOG
UNION CITY     CLEAR     68  68 100 CALM      30.13R
BOLIVAR        CLEAR     72  72 100 CALM      30.13R
PARIS          CLEAR     70  68  94 CALM      30.14R
HUNTINGDON     CLEAR     72  68  88 CALM      30.14R
LEXINGTON      CLEAR     68  68 100 CALM      30.14R
SELMER         CLEAR     73  72  94 CALM      30.14R
SAVANNAH       CLEAR     70  70 100 CALM      30.13R
$$

TNZ008-025-027-028-033-062-065-066-211300-
NORTH MIDDLE TENNESSEE

CITY           SKY/WX    TMP DP  RH WIND       PRES   REMARKS
NASHVILLE      PTCLDY    73  70  90 CALM      30.17R
PORTLAND       CLEAR     70  68  94 S3        30.17R
CLARKSVILLE    CLEAR     69  67  93 E3        30.16R
SMYRNA         CLEAR     70  69  97 CALM      30.18R
COOKEVILLE     CLEAR     68  68 100 CALM      30.19R
GALLATIN       CLEAR     70  66  88 CALM      30.20R
CROSSVILLE     SUNNY     66  65  96 CALM      30.26R
$$

TNZ061-075-076-078-094-096-097-211300-
SOUTH MIDDLE TENNESSEE

CITY           SKY/WX    TMP DP  RH WIND       PRES   REMARKS
FAYETTEVILLE   CLEAR     70  68  94 CALM      30.17S
TULLAHOMA      CLEAR     68  64  88 CALM      30.20R
WINCHESTER     CLEAR     70  66  88 CALM      30.19R
MCMINNVILLE    CLEAR     68  68 100 CALM      30.20R
COLUMBIA       CLEAR     70  70 100 CALM      30.15R
SHELBYVILLE    CLEAR     70  68  94 E3        30.17R
$$

TNZ017-018-042-046-047-211300-
NORTHEAST TENNESSEE

CITY           SKY/WX    TMP DP  RH WIND       PRES   REMARKS
TRI CITIES     MOSUNNY   69  67  93 CALM      30.26R
ELIZABETHTON   SUNNY     70  66  88 CALM      30.27R
$$

TNZ012-013-036-069-073-074-211300-
CENTRAL EAST TENNESSEE

CITY           SKY/WX    TMP DP  RH WIND       PRES   REMARKS
KNOXVILLE      MOSUNNY   69  67  93 E3        30.21R
OAK RIDGE      FOG       69  68  96 CALM      30.23R VSB 1/4
DOWNTOWN KNOXV SUNNY     70  70 100 CALM      30.21R FOG
GATLINBURG     SUNNY     66  64  94 CALM      30.22R
MORRISTOWN     SUNNY     70  68  94 CALM      30.23R
JACKSBORO      FOG       66  66 100 CALM      30.27R VSB 1
$$

TNZ083-085-099-211300-
SOUTHEAST TENNESSEE

CITY           SKY/WX    TMP DP  RH WIND       PRES   REMARKS
CHATTANOOGA    MOSUNNY   72  69  90 CALM      30.20R
DAYTON         MOSUNNY   68  68 100 CALM      30.19S
$$

SKY/WX REPORTED AS FAIR MEANS FEW OR NO CLOUDS BELOW
12 THOUSAND FEET.





USA.gov is the U.S. government's official web portal to all federal, state and local government web resources and services.